| time (UTC) | temp F | wind direction | speed MPH | gust MPH | rain 1hr in | rain 24hr in | rain mn in | humidity % | barometer mb |
| 20260903133032 | 43 | 222 | 0.0 | 3.0 | 0.00 | 0.03 | 0.00 | 95 | 1013.6 |
| 20260903131607 | 43 | 245 | 0.0 | 1.0 | 0.00 | 0.03 | 0.00 | 95 | 1013.5 |
| 20260903130030 | 42 | 283 | 0.0 | 3.0 | 0.00 | 0.03 | 0.00 | 95 | 1013.4 |
| 20260903124534 | 42 | 292 | 0.0 | 4.0 | 0.00 | 0.03 | 0.00 | 95 | 1013.4 |
| 20260903123108 | 41 | 266 | 1.0 | 4.0 | 0.00 | 0.03 | 0.00 | 95 | 1013.3 |
| 20260903121534 | 41 | 197 | 0.0 | 5.0 | 0.00 | 0.03 | 0.00 | 95 | 1013.3 |
| 20260903114533 | 41 | 269 | 0.0 | 4.0 | 0.00 | 0.03 | 0.00 | 95 | 1013.2 |
| 20260903113036 | 41 | 271 | 0.0 | 3.0 | 0.00 | 0.03 | 0.00 | 95 | 1013.1 |
| 20260903111530 | 41 | 170 | 0.0 | 4.0 | 0.00 | 0.03 | 0.00 | 95 | 1013.0 |
| 20260903110031 | 41 | 172 | 0.0 | 3.0 | 0.00 | 0.03 | 0.00 | 94 | 1012.9 |
| 20260903104644 | 42 | 284 | 0.0 | 5.0 | 0.00 | 0.03 | 0.00 | 94 | 1012.9 |
| 20260903101529 | 43 | 292 | 0.0 | 2.0 | 0.00 | 0.03 | 0.00 | 94 | 1013.0 |
| 20260903100035 | 43 | 287 | 2.0 | 5.0 | 0.00 | 0.03 | 0.00 | 94 | 1012.9 |
| 20260903094642 | 44 | 269 | 1.0 | 6.0 | 0.00 | 0.03 | 0.00 | 94 | 1012.7 |
| 20260903093031 | 44 | 280 | 1.0 | 5.0 | 0.00 | 0.03 | 0.00 | 94 | 1012.8 |
| 20260903091530 | 45 | 270 | 0.0 | 3.0 | 0.00 | 0.03 | 0.00 | 94 | 1012.9 |
| 20260903090034 | 46 | 270 | 0.0 | 0.0 | 0.00 | 0.03 | 0.00 | 94 | 1012.9 |
| 20260903083142 | 47 | 184 | 0.0 | 3.0 | 0.00 | 0.03 | 0.00 | 93 | 1012.6 |
| 20260903081643 | 48 | 164 | 3.0 | 5.0 | 0.00 | 0.03 | 0.00 | 93 | 1012.7 |
| 20260903080034 | 47 | 190 | 0.0 | 3.0 | 0.00 | 0.03 | 0.00 | 93 | 1012.9 |
| 20260903073030 | 48 | 292 | 0.0 | 0.0 | 0.00 | 0.03 | 0.00 | 92 | 1012.4 |
| 20260903071643 | 48 | 292 | 0.0 | 2.0 | 0.00 | 0.03 | 0.00 | 92 | 1012.3 |
| 20260903070030 | 48 | 292 | 0.0 | 2.0 | 0.00 | 0.03 | 0.00 | 92 | 1012.2 |
| 20260903064535 | 50 | 292 | 0.0 | 0.0 | 0.00 | 0.03 | 0.03 | 92 | 1012.2 |
| 20260903063029 | 50 | 292 | 0.0 | 4.0 | 0.00 | 0.03 | 0.03 | 91 | 1012.2 |
| 20260903060030 | 52 | 22 | 0.0 | 3.0 | 0.00 | 0.03 | 0.03 | 91 | 1012.2 |
| 20260903054606 | 53 | 22 | 0.0 | 3.0 | 0.00 | 0.03 | 0.03 | 91 | 1012.4 |
| 20260903053032 | 54 | 22 | 0.0 | 0.0 | 0.00 | 0.03 | 0.03 | 90 | 1012.5 |
| 20260903051607 | 54 | 22 | 0.0 | 2.0 | 0.00 | 0.03 | 0.03 | 90 | 1012.3 |
| 20260903050031 | 54 | 22 | 1.0 | 3.0 | 0.00 | 0.03 | 0.03 | 89 | 1012.1 |
| 20260903044530 | 54 | 32 | 1.0 | 4.0 | 0.00 | 0.03 | 0.03 | 88 | 1012.0 |
| 20260903043029 | 54 | 45 | 0.0 | 1.0 | 0.00 | 0.03 | 0.03 | 87 | 1012.1 |
| 20260903041644 | 54 | 21 | 0.0 | 3.0 | 0.01 | 0.03 | 0.03 | 86 | 1011.8 |
| 20260903040041 | 54 | 292 | 0.0 | 1.0 | 0.03 | 0.03 | 0.03 | 85 | 1011.7 |
| 20260903040034 | 54 | 287 | 2.0 | 6.0 | 0.03 | 0.03 | 0.03 | 83 | 1011.5 |
| 20260903033142 | 56 | 279 | 4.0 | 9.0 | 0.03 | 0.03 | 0.02 | 79 | 1011.2 |
| 20260903031648 | 59 | 267 | 8.0 | 14.0 | 0.02 | 0.02 | 0.00 | 76 | 1011.1 |
| 20260903030033 | 60 | 235 | 6.0 | 11.0 | 0.00 | 0.00 | 0.00 | 76 | 1010.6 |
| 20260903024533 | 60 | 205 | 8.0 | 13.0 | 0.00 | 0.00 | 0.00 | 75 | 1010.3 |
| 20260903023030 | 60 | 201 | 6.0 | 10.0 | 0.00 | 0.00 | 0.00 | 75 | 1010.2 |
| 20260903021530 | 61 | 170 | 6.0 | 11.0 | 0.00 | 0.00 | 0.00 | 75 | 1010.1 |
| 20260903014530 | 61 | 162 | 4.0 | 6.0 | 0.00 | 0.00 | 0.00 | 74 | 1010.2 |
| 20260903013031 | 61 | 163 | 4.0 | 10.0 | 0.00 | 0.00 | 0.00 | 73 | 1010.4 |
| 20260903011611 | 61 | 200 | 5.0 | 9.0 | 0.00 | 0.00 | 0.00 | 71 | 1010.4 |
| 20260903004537 | 63 | 195 | 9.0 | 16.0 | 0.00 | 0.00 | 0.00 | 67 | 1010.5 |
| 20260903003051 | 62 | 189 | 8.0 | 14.0 | 0.00 | 0.00 | 0.00 | 68 | 1010.5 |
| 20260903000135 | 62 | 200 | 10.0 | 17.0 | 0.00 | 0.00 | 0.00 | 67 | 1010.6 |
| 20260902233036 | 64 | 203 | 10.0 | 16.0 | 0.00 | 0.00 | 0.00 | 63 | 1010.5 |
| 20260902231641 | 64 | 203 | 10.0 | 15.0 | 0.00 | 0.00 | 0.00 | 64 | 1010.7 |
| 20260902224529 | 63 | 198 | 7.0 | 13.0 | 0.00 | 0.00 | 0.00 | 63 | 1010.5 |
| 20260902223030 | 64 | 197 | 5.0 | 10.0 | 0.00 | 0.00 | 0.00 | 64 | 1010.4 |
| 20260902221532 | 63 | 197 | 6.0 | 11.0 | 0.00 | 0.00 | 0.00 | 64 | 1010.5 |
| 20260902220041 | 62 | 178 | 5.0 | 10.0 | 0.00 | 0.00 | 0.00 | 66 | 1010.4 |
| 20260902214533 | 62 | 188 | 4.0 | 7.0 | 0.00 | 0.00 | 0.00 | 68 | 1010.6 |
| 20260902213032 | 61 | 196 | 5.0 | 9.0 | 0.00 | 0.00 | 0.00 | 69 | 1010.7 |
| 20260902211610 | 62 | 199 | 9.0 | 15.0 | 0.00 | 0.00 | 0.00 | 64 | 1011.0 |
| 20260902204529 | 63 | 183 | 9.0 | 15.0 | 0.00 | 0.00 | 0.00 | 60 | 1010.8 |
| 20260902203035 | 63 | 202 | 10.0 | 18.0 | 0.00 | 0.00 | 0.00 | 62 | 1010.7 |
| 20260902201534 | 62 | 199 | 10.0 | 17.0 | 0.00 | 0.00 | 0.00 | 66 | 1010.8 |
| 20260902200030 | 63 | 201 | 11.0 | 17.0 | 0.00 | 0.00 | 0.00 | 62 | 1010.9 |
| 20260902194530 | 64 | 206 | 14.0 | 24.0 | 0.00 | 0.00 | 0.00 | 57 | 1010.7 |
| 20260902193036 | 66 | 205 | 18.0 | 26.0 | 0.00 | 0.00 | 0.00 | 54 | 1010.5 |
| 20260902191534 | 68 | 203 | 13.0 | 23.0 | 0.00 | 0.00 | 0.00 | 51 | 1010.0 |
| 20260902190029 | 68 | 266 | 3.0 | 16.0 | 0.00 | 0.00 | 0.00 | 57 | 1009.8 |
| 20260902184530 | 68 | 97 | 1.0 | 5.0 | 0.00 | 0.00 | 0.00 | 59 | 1009.8 |
| 20260902183037 | 68 | 36 | 2.0 | 12.0 | 0.00 | 0.00 | 0.00 | 60 | 1010.1 |
| 20260902181531 | 67 | 70 | 3.0 | 11.0 | 0.00 | 0.00 | 0.00 | 62 | 1010.2 |
| 20260902180033 | 66 | 316 | 2.0 | 8.0 | 0.00 | 0.00 | 0.00 | 65 | 1010.4 |
| 20260902174529 | 65 | 307 | 1.0 | 4.0 | 0.00 | 0.00 | 0.00 | 67 | 1010.6 |
| 20260902173034 | 62 | 54 | 2.0 | 7.0 | 0.00 | 0.00 | 0.00 | 74 | 1011.1 |
| 20260902170035 | 61 | 19 | 2.0 | 7.0 | 0.00 | 0.00 | 0.00 | 77 | 1011.2 |
| 20260902164642 | 60 | 43 | 1.0 | 6.0 | 0.00 | 0.00 | 0.00 | 80 | 1011.4 |
| 20260902163141 | 58 | 15 | 2.0 | 5.0 | 0.00 | 0.00 | 0.00 | 85 | 1011.6 |
| 20260902160035 | 56 | 202 | 0.0 | 1.0 | 0.00 | 0.00 | 0.00 | 89 | 1012.0 |
| 20260902154529 | 54 | 202 | 0.0 | 1.0 | 0.00 | 0.00 | 0.00 | 91 | 1012.1 |
| 20260902153030 | 52 | 175 | 2.0 | 4.0 | 0.00 | 0.00 | 0.00 | 92 | 1012.2 |
| 20260902151642 | 50 | 202 | 1.0 | 3.0 | 0.00 | 0.00 | 0.00 | 93 | 1012.3 |
| 20260902150035 | 48 | 184 | 1.0 | 4.0 | 0.00 | 0.00 | 0.00 | 93 | 1012.3 |
| 20260902144536 | 47 | 168 | 0.0 | 3.0 | 0.00 | 0.00 | 0.00 | 93 | 1012.4 |
| 20260902143037 | 45 | 268 | 2.0 | 4.0 | 0.00 | 0.00 | 0.00 | 93 | 1012.4 |
| 20260902141532 | 44 | 260 | 1.0 | 4.0 | 0.00 | 0.00 | 0.00 | 92 | 1012.4 |
| 20260902140036 | 44 | 211 | 0.0 | 3.0 | 0.00 | 0.00 | 0.00 | 92 | 1012.3 |
| 20260902134531 | 43 | 202 | 0.0 | 3.0 | 0.00 | 0.00 | 0.00 | 92 | 1012.3 |